This demonstration page uses our WeatherBlox Daily Observations layout. Learn more.

Left ArrowRight Arrow

44.8408, -93.29828

Hourly Observations for August 2, 2021

Temp ( °F °C ) Dew Point ( °F °C ) Humidity (%) Winds ( mph kmh ) Pressure ( in mb ) Visibility ( mi km ) Precip ( " mm )
12:53 am 00:53 Clear 66 18.9 51 10.6 59 59 SSW 3 6 30.17 1022 10 16 0.00 0.00
1:53 am 01:53 Clear 66 18.9 52 11.1 61 61 Calm 30.17 1022 10 16 0.00 0.00
2:53 am 02:53 Clear 64 17.8 52 11.1 65 65 WSW 3 6 30.17 1022 10 16 0.00 0.00
3:53 am 03:53 Mostly Cloudy 64 17.8 52 11.1 65 65 W 3 6 30.17 1022 10 16 0.00 0.00
4:53 am 04:53 Partly Cloudy 63 17.2 53 11.7 70 70 Calm 30.18 1022 10 16 0.00 0.00
5:53 am 05:53 Mostly Cloudy 63 17.2 53 11.7 70 70 SW 3 6 30.18 1022 10 16 0.00 0.00
6:53 am 06:53 Mostly Cloudy 63 17.2 54 12.2 73 73 SSW 3 6 30.19 1022 10 16 0.00 0.00
7:53 am 07:53 Partly Cloudy 65 18.3 54 12.2 68 68 VRB 3 6 30.19 1022 10 16 0.00 0.00
8:53 am 08:53 Mostly Sunny 69 20.6 54 12.2 59 59 W 5 7 30.18 1022 10 16 0.00 0.00
9:53 am 09:53 Sunny 74 23.3 53 11.7 48 48 W 6 9 30.18 1022 10 16 0.00 0.00
10:53 am 10:53 Mostly Sunny 77 25 53 11.7 43 43 W 6 9 30.16 1021 10 16 0.00 0.00
11:53 am 11:53 Partly Cloudy 79 26.1 50 10 36 36 NNW 9 15 30.15 1021 9 14 0.00 0.00
12:53 pm 12:53 Mostly Cloudy 79 26.1 50 10 36 36 W 5 7 30.14 1021 9 14 0.00 0.00
1:53 pm 13:53 Mostly Cloudy 79 26.1 51 10.6 38 38 VRB 3 6 30.12 1020 9 14 0.00 0.00
2:53 pm 14:53 Mostly Cloudy 79 26.1 50 10 36 36 VRB 3 6 30.11 1020 9 14 0.00 0.00
3:53 pm 15:53 Mostly Cloudy 81 27.2 51 10.6 35 35 VRB 5 7 30.10 1019 8 13 0.00 0.00
4:53 pm 16:53 Mostly Cloudy 80 26.7 52 11.1 38 38 W 7 11 30.09 1019 8 13 0.00 0.00
5:53 pm 17:53 Mostly Cloudy 81 27.2 50 10 34 34 W 6 9 30.08 1019 9 14 0.00 0.00
6:53 pm 18:53 Mostly Cloudy 80 26.7 51 10.6 37 37 W 5 7 30.07 1018 8 13 0.00 0.00
7:53 pm 19:53 Mostly Cloudy 80 26.7 52 11.1 38 38 W 10 17 30.07 1018 6 10 0.00 0.00
8:53 pm 20:53 Partly Cloudy 77 25 52 11.1 42 42 W 6 9 30.07 1018 8 13 0.00 0.00
9:53 pm 21:53 Mostly Clear 75 23.9 53 11.7 46 46 WSW 6 9 30.08 1019 9 14 0.00 0.00
10:53 pm 22:53 Mostly Clear 73 22.8 55 12.8 53 53 WSW 5 7 30.08 1019 9 14 0.00 0.00
11:53 pm 23:53 Mostly Clear 71 21.7 55 12.8 57 57 WSW 6 9 30.08 1019 9 14 0.00 0.00

Powered by AerisWeather